Abakan, Russia

8:25 AM +07 on November 20, 2019 (GMT +0700)
Abakan

Weather History for UNAA - September, 2019

Change the Weather History Date:

Sunday, September 8, 2019

  Actual Average Record
Temperature  
Mean Temperature 52 °F -  
Max Temperature 66 °F - - ()
Min Temperature 37 °F - - ()
Degree Days  
Heating Degree Days 14    
Growing Degree Days 2 (Base 50)    
Moisture  
Dew Point 43 °F    
Average Humidity 74    
Maximum Humidity 93    
Minimum Humidity 43    
Precipitation  
Precipitation 0.00 in - - ()
Sea Level Pressure  
Sea Level Pressure 30.02 in    
Wind  
Wind Speed 2 mph ()    
Max Wind Speed 7 mph    
Max Gust Speed -    
T = Trace of Precipitation, MM = Missing Value Source: Averaged Metar Reports

Daily Weather History Graph

Daily Weather History Graph

Search for Another Location

Airport or City:

Astronomy

Sep. 08, 2019 Rise Set
Actual Time 6:14 AM +07 7:29 PM +07
Civil Twilight 5:38 AM +07 8:05 PM +07
Nautical Twilight 4:54 AM +07 8:49 PM +07
Astronomical Twilight 4:05 AM +07 9:37 PM +07
Moon 4:57 PM +07 (9/8) No Moon Set
Length of Visible Light 14h 27m
Length of Day
13h 14m
Waxing Gibbous, 70% of the Moon is Illuminated
Sep 8
Waxing Gibbous
Sep 14
Full
Sep 22
Last Quarter
Sep 29
New
Oct 5
First Quarter

Hourly Weather History & Observations

Time (+07) Temp. Windchill Dew Point Humidity Pressure Visibility Wind Dir Wind Speed Gust Speed Precip Events Conditions
12:00 AM 46.4 °F 43.0 °F 42.8 °F 87% 30.04 in - North 6.7 mph - N/A   Clear
12:30 AM 46.4 °F - 41.0 °F 81% 30.04 in - Calm Calm - N/A   Clear
1:00 AM 46.4 °F - 41.0 °F 81% 30.04 in - Calm Calm - N/A   Clear
1:30 AM 44.6 °F - 41.0 °F 87% 30.04 in - WNW 2.2 mph - N/A   Clear
2:00 AM 42.8 °F 40.2 °F 41.0 °F 93% 30.04 in - WSW 4.5 mph - N/A   Clear
2:30 AM 42.8 °F - 41.0 °F 93% 30.04 in - West 2.2 mph - N/A   Clear
3:00 AM 42.8 °F - 39.2 °F 87% 30.04 in - WSW 2.2 mph - N/A   Clear
3:30 AM 41.0 °F - 39.2 °F 93% 30.04 in - West 2.2 mph - N/A   Clear
4:00 AM 41.0 °F - 39.2 °F 93% 30.04 in - Calm Calm - N/A   Clear
4:30 AM 41.0 °F - 39.2 °F 93% 30.04 in - Calm Calm - N/A   Clear
5:00 AM 39.2 °F - 37.4 °F 93% 30.04 in - Calm Calm - N/A   Clear
5:30 AM 41.0 °F - 39.2 °F 93% 30.04 in - Calm Calm - N/A   Clear
6:00 AM 39.2 °F - 37.4 °F 93% 30.06 in - SSW 2.2 mph - N/A   Clear
6:30 AM 37.4 °F - 35.6 °F 93% 30.06 in - Calm Calm - N/A   Clear
8:00 AM 46.4 °F - 42.8 °F 87% 30.06 in - SSE 2.2 mph - N/A   Clear
9:00 AM 51.8 °F - 44.6 °F 76% 30.06 in - Calm Calm - N/A   Clear
9:30 AM 53.6 °F - 44.6 °F 72% 30.06 in - Calm Calm - N/A   Clear
10:00 AM 55.4 °F - 44.6 °F 67% 30.04 in - Calm Calm - N/A   Clear
10:30 AM 55.4 °F - 44.6 °F 67% 30.04 in - Variable 2.2 mph - N/A   Clear
11:00 AM 57.2 °F - 44.6 °F 63% 30.04 in - NE 4.5 mph - N/A   Clear
11:30 AM 59.0 °F - 44.6 °F 59% 30.04 in - Variable 2.2 mph - N/A   Clear
12:00 PM 60.8 °F - 44.6 °F 55% 30.04 in - ENE 4.5 mph - N/A   Clear
12:30 PM 60.8 °F - 44.6 °F 55% 30.04 in - Variable 2.2 mph - N/A   Clear
1:00 PM 62.6 °F - 46.4 °F 55% 30.01 in - Calm Calm - N/A   Clear
1:30 PM 64.4 °F - 46.4 °F 52% 30.01 in - Variable 2.2 mph - N/A   Clear
2:00 PM 64.4 °F - 48.2 °F 56% 30.01 in - Variable 2.2 mph - N/A   Clear
2:30 PM 64.4 °F - 44.6 °F 49% 30.01 in - Variable 2.2 mph - N/A   Clear
3:30 PM 66.2 °F - 46.4 °F 49% 29.98 in - Variable 2.2 mph - N/A   Clear
4:00 PM 66.2 °F - 42.8 °F 43% 29.98 in - Calm Calm - N/A   Clear
4:30 PM 66.2 °F - 42.8 °F 43% 29.98 in - Variable 2.2 mph - N/A   Clear
5:30 PM 66.2 °F - 44.6 °F 46% 29.98 in - NE 4.5 mph - N/A   Clear
6:00 PM 64.4 °F - 48.2 °F 56% 29.98 in - North 6.7 mph - N/A   Clear
6:30 PM 62.6 °F - 48.2 °F 59% 29.98 in - North 4.5 mph - N/A   Clear
7:00 PM 57.2 °F - 48.2 °F 72% 29.98 in - North 4.5 mph - N/A   Clear
7:30 PM 55.4 °F - 48.2 °F 77% 29.98 in - North 4.5 mph - N/A   Clear
8:00 PM 53.6 °F - 46.4 °F 77% 29.98 in - North 4.5 mph - N/A   Clear
8:30 PM 51.8 °F - 46.4 °F 82% 29.98 in - NNE 4.5 mph - N/A   Clear
9:00 PM 51.8 °F - 46.4 °F 82% 29.98 in - North 2.2 mph - N/A   Clear
9:30 PM 50.0 °F - 46.4 °F 87% 29.98 in - NNE 2.2 mph - N/A   Clear
10:00 PM 48.2 °F - 44.6 °F 87% 29.98 in - NE 2.2 mph - N/A   Clear
11:00 PM 46.4 °F - 44.6 °F 93% 29.98 in - Calm Calm - N/A   Clear
11:30 PM 44.6 °F - 42.8 °F 93% 29.98 in - NNW 2.2 mph - N/A   Clear